Theta_e
288 289 288 287 287 288 286 287 282 285 288 293 296 297 300 303 306 307 309 312 319 319 325 327 329 332 329 328 327 325 322 318 311 309 310 308 305 304 304 305 305 304 304 304
285 288 288 285 287 288 288 288 288 288 288 296 299 300 299 301 303 305 307 311 320 323 326 328 331 326 326 324 323 320 312 308 308 306 305 303 302 300 301 302 302 301 301 301
282 287 286 282 286 287 288 290 291 287 292 297 297 298 301 303 304 304 307 313 321 323 327 328 324 324 322 320 317 312 309 307 306 304 303 302 300 298 299 300 300 299 298 299
283 284 278 290 290 290 288 289 292 293 296 298 299 303 306 308 306 307 310 315 323 324 323 322 322 319 317 316 312 310 307 306 306 303 302 301 299 298 298 297 297 296 297 298
281 281 285 286 286 286 284 284 290 291 297 300 304 305 305 309 311 312 319 324 320 320 318 317 316 315 313 311 309 307 305 305 304 305 303 300 297 296 296 294 294 295 296 297
283 279 278 282 287 290 290 281 289 289 293 296 302 296 303 310 312 319 318 315 313 314 313 311 311 311 309 308 307 306 305 305 305 303 301 297 296 295 295 295 295 295 295 297
282 281 284 286 287 290 281 282 288 292 295 295 295 303 309 312 313 312 311 310 311 311 309 308 309 309 307 306 305 305 305 304 303 301 298 296 295 294 294 294 294 295 294 296
281 280 277 289 286 282 285 289 291 293 295 297 299 305 305 305 305 306 305 306 306 304 304 306 306 306 304 303 305 307 305 302 301 300 297 295 294 294 294 294 294 294 294 294
282 283 287 286 286 289 292 292 293 294 298 301 300 301 301 301 303 303 303 303 303 301 300 302 303 303 301 301 304 304 303 301 300 298 296 295 293 293 293 294 293 293 292 292
284 287 285 287 290 291 295 293 294 296 297 298 296 298 298 299 300 300 300 300 299 298 297 295 300 300 300 301 301 300 299 299 299 297 295 294 293 293 293 293 292 292 292 292
286 288 290 290 290 293 293 294 294 296 296 296 296 295 295 295 294 296 296 297 297 293 293 294 296 297 298 300 300 298 298 297 296 295 293 292 292 292 292 293 293 292 293 293
283 287 289 288 292 294 292 291 293 293 294 295 296 295 295 294 295 294 294 293 294 295 293 293 293 294 295 297 298 298 297 297 295 292 292 292 291 290 289 289 289 288 289 292
288 293 294 294 294 295 293 293 293 293 294 293 295 295 295 295 295 295 293 292 293 292 291 292 292 293 295 297 297 295 294 294 292 292 292 292 292 291 290 290 290 289 289 289
296 295 292 293 292 295 294 295 295 294 294 295 295 295 295 294 295 294 293 293 292 291 292 291 291 291 293 294 294 294 293 291 292 292 292 292 292 292 292 291 290 290 288 289
295 296 295 295 295 294 295 294 292 292 293 293 294 294 294 293 293 293 294 295 294 294 293 292 291 290 293 293 293 292 292 291 292 292 292 292 293 293 292 292 291 291 290 289
296 296 295 294 294 294 294 294 293 291 292 292 292 292 293 293 296 297 297 297 296 295 294 294 293 294 294 293 293 293 292 290 291 292 292 293 293 293 292 292 291 291 290 290
294 293 294 293 293 292 292 292 292 292 293 293 294 295 295 294 295 295 296 297 297 296 296 296 295 296 295 295 294 293 293 293 290 293 293 293 293 292 292 292 291 290 289 287
297 296 296 295 293 292 293 294 294 294 293 294 295 295 294 293 293 294 295 297 296 296 296 297 297 297 297 297 296 295 294 293 293 292 293 292 293 293 292 292 291 290 289 287
297 295 295 295 296 295 294 294 294 294 294 294 294 292 293 293 294 294 296 295 295 294 295 297 293 297 297 295 296 296 295 294 293 293 293 289 292 292 292 292 291 290 290 289
296 296 296 296 296 295 294 294 294 294 294 294 293 292 292 293 294 294 294 292 294 294 296 296 298 297 296 293 292 296 295 295 294 293 292 292 292 292 291 289 290 290 290 290
296 296 296 295 295 295 295 295 294 293 293 294 293 292 292 293 294 294 293 291 292 294 295 293 295 295 295 292 294 294 294 294 294 293 292 292 291 291 291 291 290 290 289 289
296 296 295 295 295 294 295 295 295 294 294 293 293 293 292 292 293 293 294 293 293 287 294 295 295 289 292 289 294 294 294 293 293 293 292 292 291 291 291 290 290 290 290 290
297 297 296 296 295 294 295 295 295 294 294 293 293 293 293 293 294 292 291 292 294 290 295 294 285 284 285 295 294 293 293 293 293 292 292 292 292 291 291 291 291 291 290 291
297 298 297 297 297 295 294 294 295 295 294 294 294 294 293 292 293 294 293 288 285 290 293 290 287 284 287 293 293 293 293 293 293 293 293 288 293 292 292 291 291 291 291 289
297 297 297 297 297 296 296 296 295 295 295 294 293 294 295 295 294 293 294 293 286 292 293 283 284 285 294 293 293 292 292 292 293 293 293 292 292 292 292 292 292 292 292 293
296 296 297 298 297 297 297 296 296 296 296 295 295 295 295 295 295 295 294 291 293 290 294 293 294 294 294 294 293 293 293 293 292 292 292 293 293 293 293 293 293 293 293 294
297 294 296 296 297 297 297 297 297 296 296 297 296 297 296 295 295 294 291 293 293 294 294 294 294 292 294 294 294 294 294 294 291 293 294 294 294 294 294 294 295 294 294 293
Wind_Speed
17 23 22 20 22 23 23 21 19 22 22 20 17 15 14 11 12 10 8 7 8 13 14 16 17 17 17 18 19 20 19 18 18 18 18 17 17 16 15 15 15 14 13 11
19 22 21 21 24 21 22 23 25 25 32 20 24 21 20 19 16 15 13 8 9 15 18 20 20 17 18 18 19 21 20 20 19 20 19 17 17 16 15 16 15 12 12 12
9 9 14 10 6 5 6 16 18 24 26 16 18 15 15 16 16 18 15 9 13 17 19 19 18 18 20 19 20 21 22 20 21 21 20 18 17 16 15 15 14 13 11 12
9 9 5 5 14 14 13 14 12 20 23 19 15 14 12 10 12 13 12 11 17 12 16 19 19 19 20 19 21 22 22 20 20 21 20 17 18 17 16 14 13 11 11 12
5 7 15 5 16 16 10 20 12 16 13 12 10 4 4 7 5 8 11 14 15 15 18 21 20 20 21 20 21 22 22 20 20 20 22 20 19 17 15 14 13 12 11 13
3 5 5 10 26 28 23 5 13 17 14 10 7 7 4 6 2 11 13 16 18 20 20 21 20 21 23 22 23 21 21 21 20 21 21 20 18 17 15 14 13 12 14 14
6 5 4 18 28 24 6 9 19 18 13 13 10 2 6 5 11 14 16 17 18 19 20 21 21 24 23 22 22 21 22 20 20 20 21 19 18 15 14 14 14 14 15 14
5 5 7 22 18 11 8 10 14 15 10 7 13 9 14 15 16 16 19 20 20 22 20 18 20 24 23 23 21 22 21 21 20 19 15 14 17 15 15 15 15 14 14 12
4 5 8 14 11 12 8 10 13 14 12 17 19 21 18 20 19 17 16 18 19 23 24 18 19 22 24 20 21 22 22 22 20 19 17 15 16 15 12 12 11 11 10 10
6 2 12 14 13 12 15 15 16 17 16 21 23 22 20 21 18 15 18 17 20 25 24 22 20 21 21 21 21 22 22 20 18 18 16 14 12 11 11 10 10 10 10 9
4 5 8 13 15 15 16 17 19 20 19 21 23 22 22 22 19 19 20 17 19 23 21 21 20 21 18 20 20 20 19 18 18 14 15 15 13 11 10 10 9 9 8 8
4 11 8 11 15 17 17 19 18 20 21 20 23 21 26 21 18 22 21 19 20 22 22 20 21 20 18 18 19 19 19 15 14 13 13 14 14 13 18 14 13 12 11 10
4 10 7 8 14 14 17 18 20 21 19 22 21 23 27 21 21 27 26 19 20 21 18 18 19 20 18 18 18 19 18 17 14 14 13 14 13 12 13 13 18 15 14 15
4 5 9 16 9 14 16 15 22 23 21 21 22 22 23 21 22 23 20 17 19 18 18 20 20 20 17 18 19 19 18 19 14 13 12 12 12 12 10 11 10 10 13 12
9 10 11 10 13 15 13 14 20 20 19 20 19 19 18 19 18 17 17 16 17 17 17 19 19 19 18 19 19 18 15 13 12 11 11 12 11 11 10 10 10 10 9 10
8 10 11 13 13 12 13 15 19 16 16 16 16 16 15 15 18 18 17 16 16 16 18 18 19 17 18 18 18 15 14 14 12 12 11 10 10 10 10 9 9 8 7 6
8 9 10 10 11 12 12 11 13 13 14 16 15 15 16 17 18 17 16 16 16 17 16 16 16 16 16 16 16 12 12 11 12 11 10 8 9 9 8 8 8 7 7 7
8 8 8 10 10 11 11 12 13 14 13 13 14 15 16 17 16 16 15 15 16 15 14 13 13 13 13 14 12 11 10 10 10 10 9 9 8 8 7 7 8 7 7 6
6 8 9 10 10 12 11 12 12 12 12 13 15 15 14 14 14 13 14 15 15 14 10 11 12 12 12 11 10 9 10 10 10 9 9 9 8 7 7 7 7 6 5 5
9 10 11 11 11 11 11 10 11 11 11 13 13 14 14 12 12 12 14 13 10 7 10 12 12 11 11 10 9 9 10 10 10 9 8 7 7 7 6 6 6 5 5 4
8 10 11 11 11 11 10 9 10 10 9 10 12 12 12 10 10 11 13 9 5 7 10 10 10 8 7 7 8 8 8 8 8 8 7 7 7 6 6 5 5 4 4 4
7 9 11 11 10 10 9 9 10 10 11 11 11 11 11 10 10 10 8 7 5 2 7 7 7 6 7 6 7 8 8 8 7 6 6 6 6 6 5 4 4 4 4 3
7 9 9 10 10 10 9 9 9 10 10 10 9 9 8 6 5 7 7 4 6 4 6 6 7 7 5 6 6 7 8 8 7 6 6 5 5 5 5 4 4 4 3 3
7 8 8 9 10 10 10 8 9 9 9 9 8 8 9 7 6 4 7 7 9 6 7 8 7 5 4 6 7 7 7 7 7 6 6 5 4 4 4 4 4 4 3 3
7 7 8 8 8 6 8 8 8 8 8 8 8 7 7 5 5 7 6 6 7 7 8 6 6 5 5 6 6 6 6 6 6 6 6 6 6 5 5 3 4 4 3 2
8 6 6 8 6 7 7 7 6 6 6 6 6 5 5 5 6 6 6 6 7 6 7 6 6 5 5 6 6 6 6 7 7 6 7 6 6 5 5 4 4 4 3 2
6 6 6 6 5 6 7 7 7 7 6 6 6 6 6 6 6 6 6 6 6 7 6 6 6 6 6 6 6 7 7 7 7 7 7 6 6 5 5 5 4 4 4 4
Wind_Direction
259 274 278 270 267 267 259 257 249 274 279 263 268 279 288 284 284 283 269 259 205 183 171 159 161 156 133 133 131 125 121 117 113 110 109 110 103 97 96 102 94 94 101 95
281 271 263 265 265 262 252 253 253 255 261 262 267 269 265 261 260 274 279 288 191 171 165 157 154 135 132 128 124 119 114 116 116 111 108 105 102 100 98 100 100 98 98 99
276 319 305 263 299 288 257 258 256 248 256 271 258 257 259 252 251 250 261 262 168 175 163 145 135 133 129 124 121 116 118 118 117 113 110 107 103 100 104 101 102 100 101 100
291 320 270 95 29 345 315 296 319 247 258 259 265 277 274 249 235 229 233 249 160 151 131 126 125 118 119 118 118 116 115 119 118 114 111 112 110 108 107 106 104 104 101 96
285 283 283 40 354 330 342 315 348 327 336 251 230 184 223 189 216 243 250 149 123 129 120 118 116 118 115 114 112 114 116 117 114 117 120 116 113 112 109 109 104 97 91 89
296 287 293 10 343 327 316 197 349 327 311 307 233 199 147 167 81 113 116 120 120 119 115 108 113 114 111 113 111 111 113 114 112 118 117 112 111 108 107 102 100 96 88 84
301 279 284 6 335 314 8 324 315 303 296 260 251 359 99 103 119 110 111 117 119 113 111 111 118 114 110 109 108 112 109 111 113 112 110 110 110 107 109 105 100 94 90 82
317 312 339 352 326 352 306 301 314 321 313 257 215 152 92 91 89 103 108 108 111 103 97 100 110 106 106 104 109 109 109 106 106 109 106 109 108 109 106 103 100 95 92 90
327 325 306 311 313 327 333 328 346 345 10 97 95 101 101 96 89 86 108 106 107 104 95 93 98 104 108 105 107 109 106 107 108 108 108 108 106 105 104 100 97 99 96 93
302 29 320 332 348 339 354 9 11 22 43 75 83 86 86 86 84 97 93 99 105 99 96 95 100 100 99 108 111 107 104 106 108 108 106 100 97 98 99 98 100 98 97 99
271 305 325 358 4 5 24 25 30 40 49 70 79 78 82 82 83 85 84 90 93 93 95 96 97 96 102 109 109 104 105 108 110 106 102 98 85 84 89 69 77 101 100 101
321 319 355 358 9 14 36 34 37 50 53 58 73 77 78 76 83 83 84 80 89 90 92 96 93 95 99 102 106 108 109 110 110 109 106 103 99 91 55 69 72 72 54 85
290 318 13 28 21 23 39 40 44 51 55 69 65 73 71 74 81 85 72 72 78 85 87 91 94 96 100 105 107 106 109 115 111 111 112 110 110 108 106 78 69 64 71 69
4 317 40 37 31 28 35 39 55 55 55 59 64 65 70 74 78 80 83 84 89 91 90 96 98 97 104 105 105 106 106 105 111 114 113 116 118 117 117 115 110 98 58 71
51 58 67 64 49 42 42 45 51 47 52 54 56 68 76 79 78 77 81 86 92 95 94 95 96 98 102 103 105 105 106 105 106 111 113 115 118 115 115 109 105 105 105 91
70 75 72 64 62 47 50 61 68 57 58 60 61 61 68 78 87 91 95 99 99 94 95 96 96 100 103 104 103 103 100 99 109 118 121 121 120 115 113 109 104 97 91 92
74 74 87 80 79 67 59 60 74 77 76 79 85 87 86 87 88 86 87 90 91 95 98 99 105 110 111 109 108 112 116 114 109 114 116 120 117 115 113 111 104 95 85 62
67 71 83 99 107 100 93 86 81 80 78 82 81 83 81 80 84 85 89 95 91 86 92 102 108 111 110 114 118 120 121 121 119 120 117 116 112 110 113 111 112 110 107 100
83 87 98 103 104 100 98 92 88 89 90 87 85 83 85 82 82 86 93 90 92 92 90 108 106 111 114 117 126 125 124 121 118 111 101 111 121 121 120 120 118 115 114 106
111 96 102 105 106 105 100 95 93 87 92 98 100 95 90 88 92 92 86 77 68 90 117 125 111 109 113 122 120 118 120 124 125 122 135 129 129 127 116 105 123 124 113 95
115 113 113 112 110 108 108 116 111 102 105 104 103 101 95 92 96 109 109 104 85 94 100 100 108 111 119 127 118 118 120 125 133 136 144 128 131 132 135 136 132 131 121 112
127 126 124 124 118 113 115 116 116 117 114 112 116 117 110 100 98 86 69 106 122 94 106 106 110 104 123 144 118 116 121 125 123 128 132 137 137 140 137 142 139 142 137 131
138 136 133 133 129 122 123 123 124 125 125 128 130 128 121 111 117 125 119 98 124 111 113 107 103 101 115 116 117 121 122 126 129 131 129 130 132 132 134 144 144 149 154 158
140 140 130 126 132 133 130 131 132 131 128 126 132 138 139 132 110 90 99 86 110 133 112 123 120 118 125 118 123 126 127 129 130 128 123 123 136 138 140 151 154 151 151 190
150 139 139 146 144 132 128 129 123 123 118 112 121 131 134 134 139 140 132 118 125 134 117 110 113 125 128 131 135 139 141 145 141 140 139 138 142 142 142 154 151 152 162 192
157 160 163 167 152 145 146 155 149 149 146 139 134 139 145 144 129 144 145 135 145 143 139 143 146 160 147 148 148 149 148 135 152 162 160 158 160 160 162 176 174 188 205 231
153 148 153 155 161 163 167 171 164 164 176 165 153 156 152 157 157 156 151 156 160 168 160 165 172 181 166 160 155 158 165 167 178 173 180 178 186 189 193 201 212 224 230 239